This is the latest recevied weather packets stored in our database for station/object KY4EF. If no packets are shown the sender has not sent any weather packets the latest 10 day(s).
| Time | Temp. | Humidity | Pressure | Rain* | Wind** | Luminosity | Snow |
|---|---|---|---|---|---|---|---|
| 1778042034 | 18.33° C | 58% | 1012.3 hPa | 0 mm | - | 0 W/m² | - |
| 1778041732 | 18.33° C | 59% | 1012.2 hPa | 0 mm | - | 0 W/m² | - |
| 1778041431 | 18.33° C | 60% | 1012.2 hPa | 0 mm | - | 0 W/m² | - |
| 1778041130 | 18.33° C | 59% | 1012.3 hPa | 0 mm | - | 0 W/m² | - |
| 1778040826 | 18.33° C | 60% | 1012.4 hPa | 0 mm | - | 0 W/m² | - |
| 1778040523 | 18.89° C | 58% | 1012.3 hPa | 0 mm | - | 0 W/m² | - |
| 1778040221 | 18.89° C | 56% | 1012.7 hPa | 0 mm | - | 0 W/m² | - |
| 1778039917 | 18.89° C | 58% | 1012.5 hPa | 0 mm | - | 0 W/m² | - |
| 1778039614 | 18.33° C | 58% | 1012.6 hPa | 0 mm | - | 0 W/m² | - |
| 1778039311 | 18.33° C | 60% | 1012.6 hPa | 0 mm | - | 0 W/m² | - |
| 1778039009 | 18.33° C | 58% | 1012.5 hPa | 0 mm | - | 0 W/m² | - |
| 1778038705 | 17.78° C | 57% | 1012.7 hPa | 0 mm | - | 0 W/m² | - |
| 1778038402 | 17.78° C | 60% | 1012.7 hPa | 0 mm | - | 0 W/m² | - |
| 1778038099 | 17.22° C | 60% | 1012.9 hPa | 0 mm | - | 0 W/m² | - |
| 1778037796 | 17.22° C | 62% | 1012.7 hPa | 0 mm | - | 0 W/m² | - |
| 1778037493 | 16.67° C | 64% | 1012.6 hPa | 0 mm | - | 0 W/m² | - |
| 1778037190 | 16.67° C | 62% | 1012.4 hPa | 0 mm | - | 0 W/m² | - |
| 1778036888 | 16.67° C | 65% | 1012.5 hPa | 0 mm | - | 0 W/m² | - |
| 1778036586 | 16.67° C | 66% | 1012.6 hPa | 0 mm | - | 0 W/m² | - |
| 1778036282 | 16.67° C | 63% | 1012.6 hPa | 0 mm | - | 0 W/m² | - |
| 1778035979 | 16.67° C | 63% | 1012.6 hPa | 0 mm | - | 0 W/m² | - |
| 1778035676 | 16.67° C | 65% | 1012.7 hPa | 0 mm | - | 0 W/m² | - |
| 1778035372 | 16.67° C | 65% | 1012.6 hPa | 0 mm | - | 0 W/m² | - |
| 1778035068 | 16.67° C | 63% | 1012.5 hPa | 0 mm | - | 0 W/m² | - |
| 1778034766 | 16.67° C | 65% | 1012.7 hPa | 0 mm | - | 0 W/m² | - |
* Rain latest hour (hover to see other rain measurements)
** Current wind speed in m/s (hover to see current wind gust speed)